| time (UTC) | temp F | wind direction | speed MPH | gust MPH | rain 1hr in | rain 24hr in | rain mn in | humidity % | barometer mb |
| 20260904000032 | 59 | 121 | 0.0 | 2.0 | 0.02 | 0.55 | 0.41 | 66 | 1010.1 |
| 20260903234527 | 58 | 117 | 0.0 | 3.0 | 0.04 | 0.56 | 0.41 | 67 | 1009.9 |
| 20260903233027 | 58 | 95 | 0.0 | 3.0 | 0.04 | 0.56 | 0.41 | 68 | 1010.0 |
| 20260903231520 | 57 | 125 | 0.0 | 1.0 | 0.04 | 0.56 | 0.41 | 68 | 1010.2 |
| 20260903230019 | 57 | 112 | 0.0 | 0.0 | 0.02 | 0.54 | 0.39 | 68 | 1010.3 |
| 20260903224517 | 57 | 96 | 0.0 | 0.0 | 0.02 | 0.60 | 0.37 | 68 | 1010.4 |
| 20260903223011 | 57 | 172 | 0.0 | 2.0 | 0.07 | 0.65 | 0.37 | 68 | 1010.4 |
| 20260903221531 | 56 | 122 | 0.0 | 0.0 | 0.11 | 0.68 | 0.37 | 71 | 1010.3 |
| 20260903220040 | 54 | 122 | 0.0 | 1.0 | 0.11 | 0.71 | 0.37 | 71 | 1010.4 |
| 20260903214536 | 54 | 94 | 0.0 | 3.0 | 0.10 | 0.70 | 0.35 | 69 | 1010.8 |
| 20260903213003 | 55 | 151 | 0.0 | 2.0 | 0.05 | 0.66 | 0.30 | 68 | 1010.8 |
| 20260903211503 | 56 | 272 | 0.0 | 2.0 | 0.03 | 0.64 | 0.26 | 67 | 1010.7 |
| 20260903210004 | 55 | 225 | 0.0 | 1.0 | 0.03 | 0.65 | 0.26 | 68 | 1010.5 |
| 20260903204503 | 56 | 233 | 0.0 | 1.0 | 0.03 | 0.66 | 0.25 | 67 | 1010.7 |
| 20260903203014 | 57 | 91 | 0.0 | 1.0 | 0.03 | 0.66 | 0.25 | 67 | 1010.9 |
| 20260903201511 | 58 | 122 | 0.0 | 4.0 | 0.01 | 0.64 | 0.23 | 66 | 1010.7 |
| 20260903200006 | 58 | 125 | 0.0 | 3.0 | 0.01 | 0.64 | 0.23 | 66 | 1010.7 |
| 20260903194506 | 59 | 129 | 0.0 | 5.0 | 0.00 | 0.63 | 0.22 | 65 | 1010.7 |
| 20260903193004 | 59 | 105 | 0.0 | 10.0 | 0.00 | 0.64 | 0.22 | 64 | 1010.6 |
| 20260903191503 | 60 | 89 | 0.0 | 6.0 | 0.00 | 0.66 | 0.22 | 64 | 1010.7 |
| 20260903190004 | 59 | 110 | 0.0 | 6.0 | 0.00 | 0.67 | 0.22 | 67 | 1010.7 |
| 20260903184516 | 59 | 174 | 1.0 | 4.0 | 0.00 | 0.69 | 0.22 | 67 | 1010.6 |
| 20260903183016 | 58 | 160 | 1.0 | 3.0 | 0.00 | 0.71 | 0.22 | 68 | 1010.6 |
| 20260903181512 | 59 | 131 | 1.0 | 6.0 | 0.04 | 0.76 | 0.22 | 67 | 1010.7 |
| 20260903180010 | 59 | 179 | 0.0 | 4.0 | 0.11 | 0.79 | 0.22 | 68 | 1010.4 |
| 20260903174505 | 58 | 121 | 1.0 | 5.0 | 0.13 | 0.79 | 0.22 | 74 | 1010.6 |
| 20260903173006 | 56 | 124 | 0.0 | 2.0 | 0.13 | 0.80 | 0.22 | 70 | 1010.6 |
| 20260903171503 | 56 | 108 | 1.0 | 5.0 | 0.09 | 0.77 | 0.18 | 69 | 1010.7 |
| 20260903170036 | 58 | 176 | 1.0 | 7.0 | 0.02 | 0.71 | 0.11 | 66 | 1010.6 |
| 20260903164522 | 59 | 222 | 0.0 | 4.0 | 0.00 | 0.70 | 0.09 | 66 | 1010.6 |
| 20260903163023 | 59 | 128 | 1.0 | 5.0 | 0.00 | 0.71 | 0.09 | 65 | 1010.6 |
| 20260903161512 | 57 | 115 | 0.0 | 1.0 | 0.00 | 0.71 | 0.09 | 72 | 1010.7 |
| 20260903160012 | 56 | 120 | 0.0 | 1.0 | 0.00 | 0.71 | 0.09 | 73 | 1010.5 |
| 20260903154508 | 55 | 243 | 0.0 | 2.0 | 0.00 | 0.71 | 0.09 | 73 | 1010.6 |
| 20260903153007 | 55 | 107 | 0.0 | 4.0 | 0.00 | 0.71 | 0.09 | 73 | 1010.4 |
| 20260903151531 | 54 | 98 | 0.0 | 3.0 | 0.01 | 0.71 | 0.09 | 74 | 1010.6 |
| 20260903150052 | 54 | 120 | 0.0 | 1.0 | 0.01 | 0.71 | 0.09 | 75 | 1010.5 |
| 20260903144532 | 54 | 129 | 0.0 | 0.0 | 0.04 | 0.71 | 0.09 | 74 | 1010.6 |
| 20260903143027 | 54 | 135 | 0.0 | 1.0 | 0.06 | 0.71 | 0.09 | 73 | 1010.4 |
| 20260903141514 | 54 | 116 | 0.0 | 6.0 | 0.07 | 0.70 | 0.08 | 72 | 1010.4 |
| 20260903140034 | 54 | 129 | 0.0 | 5.0 | 0.08 | 0.70 | 0.08 | 72 | 1010.3 |
| 20260903134510 | 54 | 116 | 0.0 | 3.0 | 0.05 | 0.67 | 0.05 | 71 | 1010.4 |
| 20260903133035 | 55 | 146 | 0.0 | 2.0 | 0.03 | 0.65 | 0.03 | 70 | 1010.3 |
| 20260903131529 | 55 | 122 | 0.0 | 5.0 | 0.01 | 0.63 | 0.01 | 69 | 1010.2 |
| 20260903130027 | 55 | 115 | 0.0 | 3.0 | 0.00 | 0.62 | 0.00 | 69 | 1010.2 |
| 20260903124533 | 55 | 110 | 0.0 | 2.0 | 0.00 | 0.62 | 0.00 | 70 | 1010.2 |
| 20260903123004 | 55 | 119 | 0.0 | 3.0 | 0.00 | 0.62 | 0.00 | 71 | 1010.1 |
| 20260903121526 | 55 | 115 | 0.0 | 4.0 | 0.00 | 0.62 | 0.00 | 71 | 1010.2 |
| 20260903120016 | 55 | 131 | 0.0 | 4.0 | 0.00 | 0.62 | 0.00 | 71 | 1010.2 |
| 20260903114511 | 54 | 161 | 0.0 | 2.0 | 0.00 | 0.62 | 0.00 | 71 | 1010.3 |
| 20260903113006 | 54 | 176 | 0.0 | 1.0 | 0.00 | 0.62 | 0.00 | 71 | 1010.3 |
| 20260903111505 | 55 | 111 | 0.0 | 5.0 | 0.00 | 0.62 | 0.00 | 71 | 1010.3 |
| 20260903110004 | 55 | 128 | 0.0 | 3.0 | 0.00 | 0.62 | 0.00 | 72 | 1010.3 |
| 20260903104504 | 55 | 193 | 0.0 | 3.0 | 0.00 | 0.62 | 0.00 | 74 | 1010.4 |
| 20260903103026 | 54 | 113 | 0.0 | 1.0 | 0.00 | 0.62 | 0.00 | 75 | 1010.5 |
| 20260903101519 | 54 | 128 | 0.0 | 2.0 | 0.00 | 0.62 | 0.00 | 75 | 1010.6 |
| 20260903100019 | 54 | 158 | 0.0 | 2.0 | 0.00 | 0.62 | 0.00 | 75 | 1010.4 |
| 20260903094514 | 55 | 201 | 0.0 | 3.0 | 0.00 | 0.62 | 0.00 | 75 | 1010.2 |
| 20260903093010 | 55 | 194 | 0.0 | 2.0 | 0.00 | 0.62 | 0.00 | 75 | 1010.3 |
| 20260903091513 | 55 | 165 | 0.0 | 5.0 | 0.00 | 0.62 | 0.00 | 75 | 1010.3 |
| 20260903090028 | 55 | 153 | 0.0 | 3.0 | 0.00 | 0.62 | 0.00 | 76 | 1010.4 |
| 20260903084539 | 55 | 139 | 0.0 | 5.0 | 0.00 | 0.62 | 0.00 | 77 | 1010.4 |
| 20260903083025 | 55 | 127 | 0.0 | 1.0 | 0.00 | 0.62 | 0.00 | 78 | 1010.6 |
| 20260903081523 | 55 | 153 | 0.0 | 2.0 | 0.00 | 0.62 | 0.00 | 78 | 1010.6 |
| 20260903080016 | 55 | 316 | 0.0 | 2.0 | 0.00 | 0.62 | 0.00 | 78 | 1010.7 |
| 20260903074515 | 55 | 107 | 0.0 | 1.0 | 0.01 | 0.62 | 0.00 | 78 | 1010.6 |
| 20260903073011 | 55 | 144 | 0.0 | 3.0 | 0.02 | 0.62 | 0.00 | 78 | 1010.6 |
| 20260903071533 | 55 | 129 | 0.0 | 4.0 | 0.02 | 0.62 | 0.00 | 78 | 1010.6 |
| 20260903070032 | 55 | 119 | 0.0 | 3.0 | 0.02 | 0.62 | 0.00 | 78 | 1010.4 |
| 20260903064526 | 55 | 128 | 0.0 | 1.0 | 0.03 | 0.61 | 0.61 | 78 | 1010.6 |
| 20260903063030 | 56 | 109 | 0.0 | 1.0 | 0.07 | 0.60 | 0.60 | 78 | 1010.7 |
| 20260903061534 | 56 | 158 | 0.0 | 2.0 | 0.09 | 0.60 | 0.60 | 78 | 1010.7 |
| 20260903060019 | 56 | 108 | 0.0 | 1.0 | 0.11 | 0.60 | 0.60 | 78 | 1010.7 |
| 20260903054519 | 56 | 128 | 0.0 | 1.0 | 0.09 | 0.58 | 0.58 | 78 | 1010.8 |
| 20260903053045 | 56 | 116 | 0.0 | 2.0 | 0.04 | 0.52 | 0.52 | 78 | 1010.8 |
| 20260903051535 | 56 | 133 | 0.0 | 0.0 | 0.02 | 0.51 | 0.51 | 77 | 1010.8 |
| 20260903050035 | 56 | 141 | 0.0 | 1.0 | 0.00 | 0.49 | 0.49 | 77 | 1010.8 |
| 20260903044530 | 56 | 108 | 0.0 | 0.0 | 0.00 | 0.49 | 0.49 | 77 | 1010.6 |
| 20260903043005 | 55 | 123 | 0.0 | 1.0 | 0.00 | 0.49 | 0.49 | 74 | 1010.3 |
| 20260903041503 | 56 | 120 | 0.0 | 2.0 | 0.00 | 0.49 | 0.49 | 74 | 1010.3 |
| 20260903040003 | 56 | 115 | 0.0 | 1.0 | 0.00 | 0.49 | 0.49 | 73 | 1010.0 |
| 20260903034502 | 56 | 122 | 0.0 | 2.0 | 0.00 | 0.49 | 0.49 | 73 | 1009.8 |
| 20260903033012 | 56 | 155 | 0.0 | 1.0 | 0.00 | 0.49 | 0.49 | 74 | 1009.6 |
| 20260903031512 | 57 | 137 | 0.0 | 2.0 | 0.00 | 0.49 | 0.49 | 74 | 1009.5 |
| 20260903030008 | 57 | 107 | 0.0 | 1.0 | 0.00 | 0.49 | 0.49 | 74 | 1009.3 |
| 20260903024505 | 58 | 103 | 0.0 | 1.0 | 0.00 | 0.49 | 0.49 | 74 | 1009.2 |
| 20260903023005 | 58 | 118 | 0.0 | 1.0 | 0.00 | 0.49 | 0.49 | 75 | 1009.3 |
| 20260903021509 | 58 | 134 | 0.0 | 1.0 | 0.00 | 0.49 | 0.49 | 75 | 1009.0 |
| 20260903020003 | 58 | 149 | 0.0 | 2.0 | 0.00 | 0.49 | 0.49 | 75 | 1009.0 |
| 20260903014516 | 59 | 90 | 0.0 | 1.0 | 0.00 | 0.49 | 0.49 | 75 | 1008.9 |
| 20260903013015 | 59 | 132 | 0.0 | 1.0 | 0.01 | 0.49 | 0.49 | 75 | 1008.8 |
| 20260903011511 | 59 | 223 | 0.0 | 1.0 | 0.01 | 0.49 | 0.49 | 75 | 1008.7 |
| 20260903010008 | 60 | 162 | 0.0 | 0.0 | 0.01 | 0.49 | 0.49 | 77 | 1008.4 |
| 20260903004518 | 60 | 200 | 0.0 | 1.0 | 0.02 | 0.49 | 0.49 | 77 | 1008.5 |
| 20260903003010 | 60 | 106 | 0.0 | 2.0 | 0.01 | 0.48 | 0.48 | 77 | 1008.4 |
| 20260903001523 | 60 | 185 | 0.0 | 1.0 | 0.01 | 0.48 | 0.48 | 77 | 1008.0 |